RAPTOR1 KASE-KLAS

Flight info

Callsign RAPTOR1
Flight time 0h 54m
Altitude 40000
Route LINDZ1 LINDZ JNC MMM
Aircraft F22/M-SDGHITUY/LB1

Departure

Time 2026-05-06 14:57
Airport Aspen-Pitkin County Airport (Sardy Field) (KASE)

Arrival

Time 2026-05-06 15:51
Airport Harry Reid International Airport (KLAS)
Time Latitude Longitude Altitude Speed Heading
2026-05-06 14:53 39.21215 -106.86254 7817 ft 0 kts 188°
2026-05-06 14:56 39.21214 -106.86255 7817 ft 2 kts 189°
2026-05-06 14:56 39.21194 -106.86352 7817 ft 19 kts 334°
2026-05-06 14:56 39.21649 -106.86568 7820 ft 149 kts 340°
2026-05-06 14:57 39.23035 -106.87222 8194 ft 261 kts 340°
2026-05-06 14:57 39.25008 -106.88152 9706 ft 315 kts 339°
2026-05-06 14:57 39.27014 -106.89062 10884 ft 293 kts 340°
2026-05-06 14:57 39.28905 -106.89915 11782 ft 287 kts 339°
2026-05-06 14:58 39.30510 -106.91273 12685 ft 271 kts 312°
2026-05-06 14:58 39.31845 -106.93243 13861 ft 335 kts 309°
2026-05-06 14:58 39.33456 -106.95814 15527 ft 394 kts 307°
2026-05-06 14:58 39.35182 -106.98704 17310 ft 416 kts 306°
2026-05-06 14:59 39.36999 -107.01724 19177 ft 433 kts 306°
2026-05-06 14:59 39.38716 -107.04989 20979 ft 444 kts 293°
2026-05-06 14:59 39.39696 -107.08783 22864 ft 449 kts 278°
2026-05-06 14:59 39.39885 -107.12811 24711 ft 450 kts 266°
2026-05-06 15:00 39.39432 -107.16828 26395 ft 455 kts 257°
2026-05-06 15:00 39.38702 -107.20786 28014 ft 461 kts 258°
2026-05-06 15:00 39.37940 -107.24842 29651 ft 468 kts 258°
2026-05-06 15:00 39.37119 -107.29009 31110 ft 487 kts 258°
2026-05-06 15:01 39.36223 -107.33316 32660 ft 503 kts 258°
2026-05-06 15:01 39.35291 -107.37721 34280 ft 513 kts 258°
2026-05-06 15:01 39.34349 -107.42192 35756 ft 518 kts 258°
2026-05-06 15:01 39.33435 -107.46715 37245 ft 523 kts 258°
2026-05-06 15:02 39.32535 -107.51265 38236 ft 535 kts 257°
2026-05-06 15:02 39.31618 -107.55973 39129 ft 544 kts 258°
2026-05-06 15:02 39.30709 -107.60753 39969 ft 550 kts 258°
2026-05-06 15:02 39.29776 -107.65633 40104 ft 567 kts 258°
2026-05-06 15:03 39.28816 -107.70666 40132 ft 583 kts 258°
2026-05-06 15:03 39.27889 -107.75594 39857 ft 541 kts 258°
2026-05-06 15:03 39.27057 -107.80100 39780 ft 505 kts 258°
2026-05-06 15:03 39.26267 -107.84385 39527 ft 476 kts 259°
2026-05-06 15:04 39.25520 -107.88395 39698 ft 454 kts 259°
2026-05-06 15:04 39.24772 -107.92466 39766 ft 478 kts 258°
2026-05-06 15:04 39.23945 -107.96891 39885 ft 535 kts 259°
2026-05-06 15:04 39.23064 -108.01727 40026 ft 563 kts 258°
2026-05-06 15:05 39.22159 -108.06667 40036 ft 581 kts 258°
2026-05-06 15:05 39.21217 -108.11788 40100 ft 594 kts 258°
2026-05-06 15:05 39.20247 -108.17021 40145 ft 604 kts 258°
2026-05-06 15:06 39.18262 -108.27731 40279 ft 623 kts 258°
2026-05-06 15:06 39.16244 -108.38751 40317 ft 640 kts 258°
2026-05-06 15:07 39.14214 -108.50002 40221 ft 656 kts 259°
2026-05-06 15:07 39.12137 -108.61520 40076 ft 655 kts 259°
2026-05-06 15:08 39.09756 -108.72742 39867 ft 646 kts 250°
2026-05-06 15:08 39.05669 -108.82964 39877 ft 637 kts 243°
2026-05-06 15:09 39.01379 -108.92751 40001 ft 627 kts 243°
2026-05-06 15:09 38.97046 -109.02471 39979 ft 623 kts 242°
2026-05-06 15:10 38.92698 -109.12075 39936 ft 619 kts 242°
2026-05-06 15:10 38.88338 -109.21602 39872 ft 617 kts 242°
2026-05-06 15:11 38.83997 -109.31022 39801 ft 615 kts 242°
2026-05-06 15:11 38.79624 -109.40455 39946 ft 617 kts 242°
2026-05-06 15:12 38.75130 -109.50083 40022 ft 639 kts 241°
2026-05-06 15:12 38.72851 -109.54942 39985 ft 650 kts 241°
2026-05-06 15:12 38.70495 -109.59948 39990 ft 659 kts 241°
2026-05-06 15:13 38.65679 -109.70111 39976 ft 674 kts 241°
2026-05-06 15:13 38.60761 -109.80455 39888 ft 686 kts 241°
2026-05-06 15:14 38.55763 -109.90926 39945 ft 691 kts 241°
2026-05-06 15:14 38.50754 -110.01375 39931 ft 695 kts 241°
2026-05-06 15:15 38.45720 -110.11922 40064 ft 696 kts 241°
2026-05-06 15:15 38.43204 -110.17206 40208 ft 695 kts 241°
2026-05-06 15:15 38.40692 -110.22475 40212 ft 694 kts 241°
2026-05-06 15:15 38.38198 -110.27684 40202 ft 680 kts 241°
2026-05-06 15:16 38.35755 -110.32765 40218 ft 681 kts 240°
2026-05-06 15:16 38.30779 -110.43065 40244 ft 684 kts 240°
2026-05-06 15:17 38.25756 -110.53405 40238 ft 687 kts 240°
2026-05-06 15:17 38.20699 -110.63757 40203 ft 689 kts 240°
2026-05-06 15:18 38.15594 -110.74120 40131 ft 691 kts 239°
2026-05-06 15:18 38.10471 -110.84366 40050 ft 692 kts 239°
2026-05-06 15:19 38.05212 -110.94643 40003 ft 694 kts 238°
2026-05-06 15:19 37.99884 -111.04893 39983 ft 696 kts 238°
2026-05-06 15:20 37.94516 -111.15113 39972 ft 697 kts 238°
2026-05-06 15:20 37.89158 -111.25219 39969 ft 699 kts 238°
2026-05-06 15:21 37.83730 -111.35412 39972 ft 700 kts 238°
2026-05-06 15:21 37.78349 -111.45587 39986 ft 701 kts 238°
2026-05-06 15:22 37.72963 -111.55907 40009 ft 702 kts 239°
2026-05-06 15:22 37.67671 -111.66227 40032 ft 703 kts 239°
2026-05-06 15:23 37.62430 -111.76670 40105 ft 704 kts 240°
2026-05-06 15:23 37.57453 -111.87245 40138 ft 704 kts 243°
2026-05-06 15:24 37.52780 -111.98127 40069 ft 706 kts 244°
2026-05-06 15:24 37.48219 -112.09112 40044 ft 707 kts 244°
2026-05-06 15:25 37.43766 -112.20201 39960 ft 709 kts 245°
2026-05-06 15:25 37.41643 -112.25641 39491 ft 685 kts 246°
2026-05-06 15:25 37.39598 -112.30897 38781 ft 652 kts 246°
2026-05-06 15:25 37.37647 -112.35925 37995 ft 624 kts 247°
2026-05-06 15:26 37.35794 -112.40738 37171 ft 598 kts 248°
2026-05-06 15:26 37.34031 -112.45411 36335 ft 587 kts 249°
2026-05-06 15:26 37.32333 -112.50059 35528 ft 583 kts 250°
2026-05-06 15:26 37.30690 -112.54725 34716 ft 581 kts 251°
2026-05-06 15:27 37.29109 -112.59382 33958 ft 580 kts 252°
2026-05-06 15:27 37.27571 -112.63998 33111 ft 579 kts 252°
2026-05-06 15:27 37.26022 -112.68663 32291 ft 579 kts 252°
2026-05-06 15:27 37.24472 -112.73333 31518 ft 577 kts 252°
2026-05-06 15:28 37.22924 -112.77985 30796 ft 576 kts 252°
2026-05-06 15:28 37.21369 -112.82620 30115 ft 574 kts 251°
2026-05-06 15:28 37.19795 -112.87237 29328 ft 573 kts 251°
2026-05-06 15:28 37.18222 -112.91752 28579 ft 571 kts 250°
2026-05-06 15:29 37.16582 -112.96296 27850 ft 570 kts 249°
2026-05-06 15:29 37.14883 -113.00815 27136 ft 570 kts 248°
2026-05-06 15:29 37.13146 -113.05273 26450 ft 569 kts 247°
2026-05-06 15:29 37.11359 -113.09704 25787 ft 568 kts 246°
2026-05-06 15:30 37.09535 -113.14088 25133 ft 567 kts 245°
2026-05-06 15:30 37.07668 -113.18444 24501 ft 566 kts 244°
2026-05-06 15:30 37.05787 -113.22704 23885 ft 565 kts 243°
2026-05-06 15:30 37.03839 -113.26971 23173 ft 564 kts 242°
2026-05-06 15:31 37.01852 -113.31190 22488 ft 563 kts 242°
2026-05-06 15:31 36.99849 -113.35328 21833 ft 562 kts 241°
2026-05-06 15:31 36.97789 -113.39490 21186 ft 562 kts 240°
2026-05-06 15:32 36.94026 -113.47946 20253 ft 554 kts 245°
2026-05-06 15:32 36.92316 -113.52251 19907 ft 550 kts 247°
2026-05-06 15:32 36.90704 -113.56601 19664 ft 546 kts 248°
2026-05-06 15:32 36.89126 -113.60896 19483 ft 542 kts 248°
2026-05-06 15:33 36.87564 -113.65155 19344 ft 538 kts 248°
2026-05-06 15:33 36.86008 -113.69406 19142 ft 536 kts 248°
2026-05-06 15:33 36.84503 -113.73587 19047 ft 532 kts 248°
2026-05-06 15:33 36.82992 -113.77786 19016 ft 527 kts 248°
2026-05-06 15:34 36.81485 -113.81940 18980 ft 523 kts 248°
2026-05-06 15:34 36.80493 -113.84676 18981 ft 520 kts 248°
2026-05-06 15:34 36.78999 -113.88781 18970 ft 517 kts 248°
2026-05-06 15:34 36.77507 -113.92857 18948 ft 515 kts 248°
2026-05-06 15:35 36.76020 -113.96908 18984 ft 511 kts 248°
2026-05-06 15:35 36.74548 -114.00952 19023 ft 509 kts 248°
2026-05-06 15:35 36.73108 -114.04923 19016 ft 507 kts 248°
2026-05-06 15:35 36.71656 -114.08924 19014 ft 506 kts 248°
2026-05-06 15:36 36.70203 -114.12919 18998 ft 505 kts 248°
2026-05-06 15:36 36.68746 -114.16910 18983 ft 504 kts 248°
2026-05-06 15:36 36.67294 -114.20877 18967 ft 504 kts 248°
2026-05-06 15:36 36.65823 -114.24851 18948 ft 504 kts 246°
2026-05-06 15:37 36.64086 -114.28604 18791 ft 509 kts 239°
2026-05-06 15:37 36.62144 -114.32338 18422 ft 516 kts 239°
2026-05-06 15:37 36.60190 -114.36132 17985 ft 523 kts 239°
2026-05-06 15:37 36.58228 -114.39961 17555 ft 528 kts 239°
2026-05-06 15:38 36.56263 -114.43806 17145 ft 532 kts 239°
2026-05-06 15:38 36.54268 -114.47709 16740 ft 535 kts 239°
2026-05-06 15:38 36.52258 -114.51634 16292 ft 538 kts 239°
2026-05-06 15:38 36.50232 -114.55575 15855 ft 540 kts 239°
2026-05-06 15:39 36.48200 -114.59520 15432 ft 542 kts 239°
2026-05-06 15:39 36.46186 -114.63413 15022 ft 543 kts 239°
2026-05-06 15:39 36.44137 -114.67363 14619 ft 543 kts 239°
2026-05-06 15:39 36.42083 -114.71314 14229 ft 543 kts 238°
2026-05-06 15:40 36.39900 -114.75159 13812 ft 545 kts 234°
2026-05-06 15:40 36.37508 -114.78818 13527 ft 542 kts 230°
2026-05-06 15:40 36.35011 -114.82288 13350 ft 538 kts 229°
2026-05-06 15:40 36.32493 -114.85720 13119 ft 535 kts 229°
2026-05-06 15:41 36.30036 -114.89050 12967 ft 522 kts 229°
2026-05-06 15:41 36.27605 -114.92313 12950 ft 508 kts 228°
2026-05-06 15:41 36.25203 -114.95467 12931 ft 496 kts 228°
2026-05-06 15:41 36.22854 -114.98542 12931 ft 487 kts 228°
2026-05-06 15:42 36.20538 -115.01573 12903 ft 479 kts 228°
2026-05-06 15:42 36.18299 -115.04492 12243 ft 454 kts 228°
2026-05-06 15:42 36.16245 -115.07267 11500 ft 431 kts 236°
2026-05-06 15:42 36.15063 -115.10527 10837 ft 405 kts 261°
2026-05-06 15:43 36.15132 -115.13875 10217 ft 379 kts 289°
2026-05-06 15:43 36.16286 -115.16684 9715 ft 355 kts 307°
2026-05-06 15:43 36.17700 -115.19027 9340 ft 335 kts 316°
2026-05-06 15:43 36.19519 -115.20722 8634 ft 323 kts 338°
2026-05-06 15:44 36.21669 -115.21157 8013 ft 311 kts
2026-05-06 15:44 36.23610 -115.20164 7470 ft 299 kts 43°
2026-05-06 15:44 36.24359 -115.17974 7259 ft 272 kts 88°
2026-05-06 15:44 36.24287 -115.15770 7214 ft 243 kts 92°
2026-05-06 15:45 36.24173 -115.13796 6999 ft 222 kts 92°
2026-05-06 15:45 36.24042 -115.11872 6810 ft 225 kts 94°
2026-05-06 15:45 36.23869 -115.09900 6772 ft 236 kts 94°
2026-05-06 15:45 36.23672 -115.07819 6805 ft 249 kts 95°
2026-05-06 15:46 36.23446 -115.05647 6850 ft 264 kts 96°
2026-05-06 15:46 36.23189 -115.03360 6927 ft 271 kts 96°
2026-05-06 15:46 36.22924 -115.01005 6975 ft 278 kts 96°
2026-05-06 15:46 36.22653 -114.98607 7014 ft 286 kts 96°
2026-05-06 15:47 36.22367 -114.96150 7056 ft 287 kts 96°
2026-05-06 15:47 36.21992 -114.93736 6965 ft 287 kts 116°
2026-05-06 15:47 36.20503 -114.92270 6577 ft 281 kts 179°
2026-05-06 15:47 36.18785 -114.93099 6175 ft 271 kts 233°
2026-05-06 15:48 36.18370 -114.95082 5405 ft 218 kts 288°
2026-05-06 15:48 36.18854 -114.96822 5377 ft 223 kts 281°
2026-05-06 15:48 36.18919 -114.98866 5269 ft 264 kts 265°
2026-05-06 15:48 36.18475 -115.01373 5131 ft 316 kts 254°
2026-05-06 15:49 36.17772 -115.03911 4964 ft 308 kts 249°
2026-05-06 15:49 36.16866 -115.06244 4798 ft 283 kts 244°
2026-05-06 15:49 36.16058 -115.08234 4539 ft 238 kts 244°
2026-05-06 15:49 36.15312 -115.09988 4187 ft 224 kts 242°
2026-05-06 15:50 36.14494 -115.11572 3792 ft 221 kts 231°
2026-05-06 15:50 36.13427 -115.13000 3429 ft 230 kts 222°
2026-05-06 15:50 36.12243 -115.14189 2959 ft 195 kts 214°
2026-05-06 15:50 36.11193 -115.14963 2440 ft 172 kts 203°
2026-05-06 15:51 36.10016 -115.15617 2174 ft 177 kts 204°
2026-05-06 15:51 36.09043 -115.16173 2137 ft 125 kts 205°
2026-05-06 15:51 36.08604 -115.16425 2164 ft 29 kts 205°
2026-05-06 15:51 36.08503 -115.16505 2162 ft 10 kts 218°
2026-05-06 15:52 36.08448 -115.16561 2163 ft 25 kts 221°
2026-05-06 15:52 36.08366 -115.16680 2168 ft 14 kts 230°
2026-05-06 15:52 36.08266 -115.16797 2167 ft 21 kts 270°
2026-05-06 15:52 36.08248 -115.16881 2170 ft 14 kts 193°
2026-05-06 15:53 36.08148 -115.16977 2173 ft 20 kts 272°
2026-05-06 15:53 36.08185 -115.17024 2173 ft 34 kts 33°
2026-05-06 15:53 36.08353 -115.16895 2167 ft 8 kts 104°
2026-05-06 15:53 36.08350 -115.16886 2167 ft 0 kts 115°